www.pogodaiklimat.ru

Погода и климат >> Архив погоды >> Афганистан >> Мазари-Шариф


ПОГОДА в Мазари-Шарифе

  • Прогноз погоды в Мазари-Шарифе
  • Монитор погоды в Мазари-Шарифе

АРХИВ ПОГОДЫ в Мазари-Шарифе

Время (UTC), дата Ветер
(напр.,м/с)
 
Видим.   Явления Облачность Т
(С)
Тd
(С)
f
(%)
Тe
(С)
Тes
(С)
Комфортность P
(гПа)
Po
(гПа)
Тmin
(С)
Tmax
(С)
R
(мм)
R24
(мм)
S
(см)
12 15.01 З 2 10 км 8/4 1050 м
[Sc Ac lent]
+11.7 +4.0 59 +11 +11 1015.8 971.4
15 15.01 Ю 3 9000 м ледяной дождь (гололёд) н/о +9.1 +5.7 79 +7 +7 1016.5 971.4
18 15.01 Ю 4 6000 м снег н/о +9.7 +4.9 72 +7 +7 1018.1 973.0 +14.4
21 15.01 Ю 2 10 км в посл. час дождь со снегом н/о +8.8 +5.7 81 +7 +7 1018.6 973.4
00 16.01 З 5 12 км в посл. час дождь со снегом {ливн. осадки} н/о +10.0 +5.2 72 +7 +7 1018.4 973.4 17
03 16.01 С 2 11 км н/о +7.3 +5.1 86 +5 +5 1020.0 974.5
06 16.01 В 6 12 км ясно +10.9 +4.8 66 +8 +10 1019.1 975.1
09 16.01 СВ 4 12 км 3/0
[Ci fib]
+14.4 +6.8 60 +13 +17 1018.9 974.4
12 16.01 В 6 12 км ясно +15.0 +8.8 66 +13 +14 1018.1 973.7
15 16.01 ЮВ 2 13 км н/о +10.2 +8.0 86 +9 +9 1018.6 973.6
18 16.01 ЮЗ 4 6000 м сильн. гроза, ливневой дождь н/о +6.6 +6.1 97 +3 +3 1019.9 974.2 +15.3
21 16.01 Ю 3 3500 м в посл. час морось н/о +5.7 +5.4 98 +2 +2 1019.7 973.9
03 17.01 СЗ 1 7000 м гроза, пыльная буря н/о +2.6 +2.3 98 +1 +1 1019.4 973.1
06 17.01 В 1 12 км н/о +11.1 +5.9 70 +11 +11 1017.8 973.0 +1.7 2
09 17.01 В 12 12 км 5/3 1050 м
[Sc Ac lent]
+13.5 +3.6 51 +10 +10 1014.5 970.2
12 17.01 В 12 13 км 8/4 1050 м
[Sc Ac und]
+13.2 +2.4 48 +10 +10 1012.5 968.3
15 17.01 В 9 15 км н/о +12.9 -2.7 34 +10 +10 1010.3 966.1
18 17.01 В 10 15 км н/о +12.6 -2.6 35 +10 +10 1009.2 965.0 +14.5
21 17.01 В 7 14 км н/о +12.3 -1.7 38 +10 +10 1008.4 964.2
00 18.01 З 4 13 км н/о +9.2 +3.2 66 +7 +7 1008.1 963.4
03 18.01 В 11 14 км н/о +11.2 +1.1 50 +7 +7 1005.6 961.3
06 18.01 СВ 5 10 км н/о +11.8 +0.2 45 +10 +10 1009.0 964.7 +8.6
09 18.01 ЮЗ 2 10 км 8/4 1050 м
[Sc Ac lent]
+13.3 +3.4 51 +13 +14 1010.2 965.9
12 18.01 В 2 12 км 5/3 1050 м
[Sc Ac lent]
+14.6 +4.6 51 +14 +15 1010.2 966.0
15 18.01 ЮВ 2 12 км {дождь} н/о +9.0 +6.6 85 +7 +7 1013.8 968.8
18 18.01 З 2 10 км н/о +9.5 +6.1 79 +8 +8 1015.4 970.4 +14.7 11
21 18.01 ЮВ 2 10 км н/о +7.9 +5.0 82 +6 +6 1014.8 969.6
00 19.01 ЮЗ 1 8000 м ливневые осадки, в посл. час гроза н/о +6.2 +5.3 94 +5 +5 1014.0 968.5
03 19.01 З 4 3300 м гроза с градом н/о +5.7 +5.1 96 +2 +2 1014.9 969.3
06 19.01 ЮЗ 5 8000 м ливневые осадки, в посл. час гроза н/о +7.7 +6.8 94 +4 +4 1015.9 970.6 +4.3
09 19.01 З 4 8000 м дымка 6/3 1050 м
[Sc Ac lent]
+7.2 +4.3 82 +4 +5 1013.5 969.1
12 19.01 З 4 10 км 10/4 1050 м
[Sc As trans]
+7.2 +4.0 80 +4 +4 1011.6 967.5
15 19.01 З 6 12 км н/о +4.7 +0.9 76 -0 -0 1014.6 968.9
18 19.01 З 9 13 км н/о +3.9 +0.9 81 -3 -3 1016.1 970.2 +8.0
21 19.01 З 6 14 км н/о +3.1 +0.3 82 -3 -3 1016.2 970.1
00 20.01 З 7 9000 м слаб. дождь н/о +3.1 +0.8 85 -3 -3 1016.6 970.5 5
03 20.01 З 7 11 км в посл. час дождь со снегом 10/6 360 м
[Frnb As op]
+2.4 +0.9 90 -4 -4 1019.1 972.8
06 20.01 З 7 10 км слаб. дождь 10/0 420 м
[As op]
+3.1 +1.4 89 -3 -3 1019.1 974.8
09 20.01 З 5 9000 м слаб. дождь 10/8 420 м
[Frnb As op]
+2.4 +1.8 96 -3 -3 1019.5 975.0
12 20.01 ЮЗ 6 10 км в посл. час дождь 10/6 450 м
[Sc As trans]
+3.8 +0.1 77 -2 -2 1020.6 976.0
15 20.01 штиль 0 н/о н/о
18 20.01 штиль 0 н/о н/о +3.3 1
21 20.01 штиль 0 н/о н/о
00 21.01 штиль 0 н/о н/о
06 21.01 В 2 12 км 4/0
[Ac lent]
+3.9 -1.8 66 +1 +5 1029.5 984.6
09 21.01 СВ 4 12 км 6/3 1050 м
[Sc Ac lent]
+4.8 -1.0 66 +1 +3 1027.6 982.8
12 21.01 СВ 1 12 км 6/3 900 м
[Sc Ac lent]
+5.4 -0.6 65 +5 +5 1025.3 980.6
15 21.01 З 3 7000 м слаб. снег н/о +4.2 -0.7 70 +1 +1 1026.2 979.9
18 21.01 СЗ 1 5000 м слаб. ливневой дождь со снегом н/о +2.5 -0.1 83 +1 +1 1025.7 979.1 +5.9
21 21.01 ЮВ 1 11 км н/о +0.1 -0.8 94 -2 -2 1024.3 977.3
00 22.01 Ю 1 7000 м ливневые осадки, в посл. час гроза н/о -0.9 -1.8 94 -3 -3 1023.6 976.5
03 22.01 СВ 1 7000 м гроза, ливневой дождь н/о -0.8 -1.5 95 -3 -3 1023.5 976.4
06 22.01 СВ 1 10 км ясно +3.7 -0.8 72 +3 +9 1021.0 976.3

 

Местоположение метеостанции Мазари-Шариф (Афганистан): широта 36.71 долгота 67.21 высота над уровнем моря 378 м.

В архиве по умолчанию представлена погода в Мазари-Шарифе за последнюю неделю. Архивные данные за месяц целиком и за предыдущие месяцы, начиная с января 2011 года, Вы можете получить, выбрав интересующий диапазон дат из раскрывающегося списка и нажав кнопку "Ввод!".


*Определитесь, кто Вы:
робот инопланетянин человек

Внимание! Время в таблицах - всемирное. Для получения местного времени необходимо прибавить поправку, которая равна 4.5 ч.

Смотрите также архив погоды в соседних городах и на ближайших метеорологических станциях:

Погода в Термезе (Сухрандарьинская область, Узбекистан) (58 км)
Погода в Ширабаде (Сухрандарьинская область, Узбекистан) (108 км)
Погода в Койтендаге (Дашогузский велаят, Туркменистан) (139 км)
Погода в Кундузе (Афганистан) (152 км)
Погода в Шурчи (Сухрандарьинская область, Узбекистан) (153 км)
Погода в Байсуне (Сухрандарьинская область, Узбекистан) (166 км)
Погода в Акрабате (Узбекистан) (175 км)
Погода в Пьяндже (Таджикистан) (176 км)
Погода в Ганжине (Таджикистан) (183 км)
Погода в Денау (Сухрандарьинская область, Узбекистан) (184 км)

Пояснения к столбцам:

Ветер - указаны скорость ветра в м/с - средняя за 10 мин, порывы в срок и между сроками (в фигурных скобках) и направление, откуда дует ветер: С - северный, СВ - северо-восточный, В - восточный, ЮВ - юго-восточный, Ю - южный, ЮЗ - юго-западный, З - западный, СЗ - северо-западный.
Видимость - горизонтальная дальность видимости в метрах или километрах. При видимости от 1 до 10 км при отсутствии осадков обычно наблюдается дымка, при ухудшении видимости до 1 км и менее - туман. В сухую погоду видимость может ухудшаться дымом, пылью или мглою.
Явления - указаны атмосферные явления, наблюдавшиеся в срок или в последний час перед сроком; фигурными скобками обозначены явления, наблюдавшиеся между сроками (за 1-3 часа до срока); квадратными скобками обозначены град или гололедные отложения с указанием их диаметра в мм.
Облачность - указаны через наклонную черту общая и нижняя облачность в баллах и высота нижней границы облаков в метрах; квадратными скобками обозначены формы облаков: Ci - перистые, Cs - перисто-слоистые, Cc - перисто-кучевые, Ac - высококучевые, As - высокослоистые, Sc - слоисто-кучевые, Ns - слоисто-дождевые, Cu - кучевые, Cb - кучево-дождевые. Подробнее классификацию облаков см. в Атласе облаков (PDF).
T - Температура воздуха - температура, измеренная на высоте 2 м над землей.
Td - Температура точки росы - температура, при понижении до которой содержащийся в воздухе водяной пар достигнет насыщения.
f - Относительная влажность воздуха - влажноcть воздуха, измеренная на высоте 2 м над землей.
Te - Эффективная температура - температура, которую ощущает одетый по сезону человек в тени. Характеристика душности погоды. При расчете учитывается влияние влажности воздуха и скорости ветра на теплоощущения человека.
Tes - Эффективная температура на солнце - температура, которую ощущает человек, с поправкой на солнечный нагрев. Характеристика знойности погоды. Зависит от высоты солнца над горизонтом, облачности и скорости ветра. Ночью, в пасмурную погоду, а также при ветре 12 м/с и более поправка равна нулю.
P - Атмосферное давление - приведенное к уровню моря атмосферное давление.
Po - Атмосферное давление - измеренное на уровне метеостанции атмосферное давление.
Tmin - Минимальная температура - минимум температуры воздуха на высоте 2 м над землей.
Tmax - Максимальная температура - максимум температуры воздуха на высоте 2 м над землей.
R - Количество осадков - Количество выпавших осадков за период времени, мм. При наведении курсора мыши на число - период времени, за который выпало указанное количество осадков.
R24 - Количество осадков - Количество выпавших осадков за 24 часа, мм.
S - Снежный покров - Высота снежного покрова, см. При наведении курсора мыши на число - состояние снежного покрова и степень покрытия местности в баллах.